• In Uzbekistan
  • List of Countries
  • For 7 days
  • Water Temperature
  • Satellite Maps
  • Weather Map
  • Weather Widgets
  • user-avatar
    Login

    Hourly Weather Berat

    Today, 23 July, Sunday

    Time Temperature Precipitation Wind Pressure Humidity
    00:00 +27°C° 0 mm 1 mps 745 mmHg 52%
    01:00 +26°C° 0 mm 2 mps 745 mmHg 52%
    02:00 +26°C° 0 mm 2 mps 745 mmHg 51%
    03:00 +26°C° 0 mm 2 mps 745 mmHg 50%
    04:00 +26°C° 0 mm 2 mps 745 mmHg 49%
    05:00 +28°C° 0 mm 2 mps 745 mmHg 46%
    06:00 +30°C° 0 mm 2 mps 745 mmHg 43%
    07:00 +32°C° 0 mm 1 mps 745 mmHg 39%
    08:00 +34°C° 0 mm 2 mps 745 mmHg 35%
    09:00 +36°C° 0 mm 2 mps 745 mmHg 31%
    10:00 +37°C° 0 mm 3 mps 745 mmHg 28%
    11:00 +38°C° 0 mm 3 mps 744 mmHg 28%
    12:00 +38°C° 0 mm 3 mps 744 mmHg 28%
    13:00 +39°C° 0 mm 3 mps 744 mmHg 28%
    14:00 +38°C° 0 mm 3 mps 743 mmHg 30%
    15:00 +38°C° 0 mm 3 mps 743 mmHg 32%
    16:00 +37°C° 0 mm 3 mps 743 mmHg 34%
    17:00 +35°C° 0 mm 3 mps 743 mmHg 41%
    18:00 +32°C° 0 mm 2 mps 743 mmHg 47%
    19:00 +29°C° 0 mm 1 mps 743 mmHg 54%
    20:00 +28°C° 0 mm 1 mps 743 mmHg 57%
    21:00 +27°C° 0 mm 1 mps 743 mmHg 60%
    22:00 +26°C° 0 mm 1 mps 743 mmHg 63%
    23:00 +25°C° 0 mm 1 mps 743 mmHg 63%

    Tomorrow, 24 July, Monday

    Time Temperature Precipitation Wind Pressure Humidity
    00:00 +25°C° 0 mm 1 mps 743 mmHg 63%
    01:00 +25°C° 0 mm 1 mps 743 mmHg 63%
    02:00 +24°C° 0 mm 1 mps 743 mmHg 62%
    03:00 +24°C° 0 mm 1 mps 742 mmHg 60%
    04:00 +24°C° 0 mm 1 mps 742 mmHg 59%
    05:00 +26°C° 0 mm 1 mps 742 mmHg 53%
    06:00 +28°C° 0 mm 1 mps 742 mmHg 47%
    07:00 +30°C° 0 mm 1 mps 742 mmHg 41%
    08:00 +32°C° 0 mm 1 mps 742 mmHg 37%
    09:00 +34°C° 0 mm 1 mps 742 mmHg 32%
    10:00 +36°C° 0 mm 2 mps 741 mmHg 27%
    11:00 +37°C° 0 mm 2 mps 741 mmHg 26%
    12:00 +38°C° 0 mm 2 mps 740 mmHg 24%
    13:00 +39°C° 0 mm 3 mps 740 mmHg 22%
    14:00 +38°C° 0 mm 3 mps 739 mmHg 24%
    15:00 +38°C° 0 mm 3 mps 739 mmHg 25%
    16:00 +38°C° 0 mm 3 mps 738 mmHg 26%
    17:00 +35°C° 0 mm 3 mps 738 mmHg 32%
    18:00 +32°C° 0 mm 2 mps 738 mmHg 39%
    19:00 +29°C° 0 mm 2 mps 738 mmHg 45%
    20:00 +29°C° 0 mm 2 mps 738 mmHg 47%
    21:00 +28°C° 0 mm 3 mps 738 mmHg 48%
    22:00 +27°C° 0 mm 3 mps 738 mmHg 50%
    23:00 +26°C° 0 mm 4 mps 738 mmHg 52%

    Day after tomorrow, 25 July, Tuesday

    Time Temperature Precipitation Wind Pressure Humidity
    00:00 +26°C° 0 mm 4 mps 737 mmHg 54%
    01:00 +25°C° 0 mm 4 mps 737 mmHg 56%
    02:00 +25°C° 0 mm 4 mps 737 mmHg 58%
    03:00 +23°C° 0 mm 4 mps 737 mmHg 61%
    04:00 +22°C° 0 mm 3 mps 736 mmHg 63%
    05:00 +25°C° 0 mm 3 mps 736 mmHg 63%
    06:00 +26°C° 0 mm 3 mps 737 mmHg 62%
    07:00 +27°C° 0 mm 3 mps 737 mmHg 61%
    08:00 +29°C° 0 mm 3 mps 736 mmHg 55%
    09:00 +30°C° 0 mm 4 mps 736 mmHg 49%
    10:00 +33°C° 0 mm 4 mps 736 mmHg 43%
    11:00 +33°C° 0 mm 5 mps 736 mmHg 40%
    12:00 +33°C° 0 mm 5 mps 736 mmHg 38%
    13:00 +34°C° 0 mm 6 mps 736 mmHg 35%
    14:00 +33°C° 0 mm 6 mps 736 mmHg 36%
    15:00 +33°C° 0 mm 6 mps 736 mmHg 37%
    16:00 +32°C° 0 mm 6 mps 736 mmHg 38%
    17:00 +29°C° 0 mm 5 mps 736 mmHg 44%
    18:00 +28°C° 0 mm 4 mps 736 mmHg 50%
    19:00 +26°C° 0 mm 3 mps 736 mmHg 56%
    20:00 +25°C° 0 mm 3 mps 736 mmHg 59%
    21:00 +24°C° 0 mm 3 mps 736 mmHg 63%
    22:00 +22°C° 0 mm 3 mps 737 mmHg 66%
    23:00 +22°C° 0 mm 3 mps 737 mmHg 69%

    26 July, Wednesday

    Time Temperature Precipitation Wind Pressure Humidity
    00:00 +21°C° 0 mm 3 mps 737 mmHg 72%
    01:00 +21°C° 0 mm 3 mps 736 mmHg 74%
    02:00 +20°C° 0 mm 2 mps 736 mmHg 76%
    03:00 +20°C° 0 mm 2 mps 736 mmHg 78%
    04:00 +20°C° 0 mm 2 mps 736 mmHg 80%
    05:00 +21°C° 0 mm 2 mps 736 mmHg 75%
    06:00 +24°C° 0 mm 2 mps 737 mmHg 71%
    07:00 +25°C° 0 mm 3 mps 737 mmHg 66%
    08:00 +27°C° 0 mm 3 mps 737 mmHg 59%
    09:00 +28°C° 0 mm 3 mps 737 mmHg 52%
    10:00 +30°C° 0 mm 4 mps 737 mmHg 45%
    11:00 +30°C° 0 mm 4 mps 737 mmHg 43%
    12:00 +32°C° 0 mm 4 mps 737 mmHg 42%
    13:00 +32°C° 0 mm 5 mps 737 mmHg 40%
    14:00 +32°C° 0 mm 4 mps 737 mmHg 41%
    15:00 +30°C° 0 mm 4 mps 737 mmHg 41%
    16:00 +30°C° 0 mm 4 mps 736 mmHg 42%
    17:00 +28°C° 0 mm 4 mps 737 mmHg 48%
    18:00 +26°C° 0 mm 3 mps 737 mmHg 55%
    19:00 +24°C° 0 mm 2 mps 737 mmHg 61%
    20:00 +23°C° 0 mm 2 mps 737 mmHg 66%
    21:00 +23°C° 0 mm 2 mps 737 mmHg 70%
    22:00 +21°C° 0 mm 2 mps 738 mmHg 74%
    23:00 +20°C° 0.1 mm 2 mps 738 mmHg 77%

    27 July, Thursday

    Time Temperature Precipitation Wind Pressure Humidity
    00:00 +20°C° 0.1 mm 3 mps 738 mmHg 80%
    01:00 +20°C° 0.1 mm 3 mps 738 mmHg 83%
    02:00 +20°C° 0.1 mm 3 mps 738 mmHg 84%
    03:00 +19°C° 0.1 mm 3 mps 738 mmHg 85%
    04:00 +19°C° 0.1 mm 3 mps 738 mmHg 86%
    05:00 +21°C° 0.1 mm 3 mps 738 mmHg 80%
    06:00 +22°C° 0.1 mm 3 mps 738 mmHg 73%
    07:00 +25°C° 0.1 mm 3 mps 738 mmHg 67%
    08:00 +26°C° 0.1 mm 3 mps 738 mmHg 60%
    09:00 +28°C° 0.1 mm 3 mps 738 mmHg 53%
    10:00 +29°C° 0.1 mm 3 mps 739 mmHg 46%
    11:00 +29°C° 0.4 mm 3 mps 738 mmHg 46%
    12:00 +30°C° 0.4 mm 3 mps 738 mmHg 46%
    13:00 +30°C° 0.4 mm 4 mps 738 mmHg 45%
    14:00 +29°C° 0.7 mm 3 mps 738 mmHg 48%
    15:00 +29°C° 0.7 mm 3 mps 738 mmHg 50%
    16:00 +28°C° 0.7 mm 3 mps 738 mmHg 53%
    17:00 +27°C° 0.3 mm 2 mps 739 mmHg 59%
    18:00 +25°C° 0.3 mm 2 mps 739 mmHg 65%
    19:00 +24°C° 0.3 mm 2 mps 739 mmHg 71%
    20:00 +23°C° 0.3 mm 1 mps 740 mmHg 75%
    21:00 +22°C° 0.3 mm 1 mps 740 mmHg 79%
    22:00 +22°C° 0.3 mm 1 mps 740 mmHg 83%
    23:00 +21°C° 0.1 mm 1 mps 740 mmHg 84%

    28 July, Friday

    Time Temperature Precipitation Wind Pressure Humidity
    00:00 +21°C° 0.1 mm 1 mps 741 mmHg 84%
    01:00 +21°C° 0.1 mm 1 mps 741 mmHg 85%
    02:00 +20°C° 0 mm 1 mps 741 mmHg 84%
    03:00 +20°C° 0 mm 1 mps 741 mmHg 83%
    04:00 +20°C° 0 mm 1 mps 741 mmHg 83%
    05:00 +22°C° 0 mm 1 mps 741 mmHg 76%
    06:00 +23°C° 0 mm 2 mps 741 mmHg 70%
    07:00 +25°C° 0 mm 2 mps 742 mmHg 64%
    08:00 +27°C° 0 mm 2 mps 742 mmHg 57%
    09:00 +28°C° 0 mm 2 mps 742 mmHg 51%
    10:00 +30°C° 0 mm 2 mps 742 mmHg 44%
    11:00 +31°C° 0.1 mm 3 mps 742 mmHg 42%
    12:00 +31°C° 0.1 mm 3 mps 742 mmHg 41%
    13:00 +33°C° 0.1 mm 4 mps 742 mmHg 39%
    14:00 +32°C° 0.2 mm 4 mps 742 mmHg 41%
    15:00 +32°C° 0.2 mm 4 mps 742 mmHg 44%
    16:00 +30°C° 0.2 mm 5 mps 742 mmHg 46%
    17:00 +29°C° 0.1 mm 4 mps 742 mmHg 52%
    18:00 +27°C° 0.1 mm 3 mps 742 mmHg 58%
    19:00 +25°C° 0.1 mm 3 mps 743 mmHg 64%
    20:00 +24°C° 0 mm 2 mps 743 mmHg 68%
    21:00 +23°C° 0 mm 2 mps 743 mmHg 71%
    22:00 +23°C° 0 mm 1 mps 744 mmHg 74%
    23:00 +22°C° 0 mm 1 mps 744 mmHg 73%
    Show more